[[{"header":{"parameterUnit":"m.s-1","parameterCategory":1,"la1":30.2991,"la2":30.254,"lo1":-89.0895,"lo2":-89.0444,"dy":0.0017,"dx":0.0017,"nx":28,"ny":28,"refTime":"2025-04-03T03:00:00:Z","depth":0,"parameterNumber":2,"parameterNumberName":"U-component_of_WINDS"},"data":[0,0,0,0,0,0,0,0,0,0,0,0,0,0,0,0,0,0,0,0,0,0,0,0,0,0,0,0,0,0,0,0,0,0,0,0,0,0,0,0,0,0,0,0,0,0,0,0,0,0,0,0,0,0,0,0,0,0,-4.8944,-4.8945,0,-4.9077,-4.9078,-4.908,-4.9105,-4.9104,-4.9103,-4.9102,-4.9237,-4.9242,-4.9246,0,0,0,0,0,0,0,0,0,0,0,0,0,-4.871,-4.8714,-4.8943,-4.8945,-4.8947,-4.9077,-4.9079,-4.908,-4.9106,-4.9104,-4.9103,-4.9102,-4.9236,-4.9241,-4.9247,0,0,0,0,0,0,0,0,0,0,0,0,0,-4.8824,-4.8716,-4.8943,-4.8975,-4.8979,-4.9076,-4.9079,-4.9081,-4.9106,-4.9104,-4.9103,-4.9101,-4.9234,-4.9241,-4.9247,-4.9322,0,0,-4.9268,-4.9271,0,0,0,0,0,0,0,0,-4.8818,-4.8833,-4.8969,-4.8973,-4.8978,-4.9073,-4.9046,-4.9161,-4.9106,-4.9058,-4.9102,-4.91,-4.9184,-4.9195,-4.9223,-4.9328,-4.9334,-4.9269,-4.9273,-4.9276,-4.9278,0,0,0,0,0,0,0,-4.881,-4.8827,-4.8996,-4.8971,-4.8976,-4.8983,-4.8997,-4.9068,-4.9128,-4.9062,-4.9064,-4.9079,-4.9186,-4.9216,-4.9226,-4.9336,-4.9269,-4.9275,-4.9279,-4.9282,-4.9508,-4.951,0,0,0,0,0,0,-4.8796,-4.882,-4.8992,-4.9,-4.8892,-4.8988,-4.9004,-4.9044,-4.9127,-4.9138,-4.9081,-4.908,-4.9205,-4.9218,-4.9231,-4.9323,-4.9276,-4.9283,-4.9286,-4.9506,-4.9509,-4.9511,0,0,0,0,0,0,-4.8791,-4.8811,-4.8987,-4.8911,-4.8934,-4.8994,-4.9038,-4.9047,-4.9078,-4.9142,-4.9152,-4.9101,-4.9205,-4.9222,-4.9299,-4.9328,-4.9286,-4.9292,-4.9504,-4.9507,-4.951,-4.9507,0,0,0,0,0,0,-4.8784,-4.8809,-4.8838,-4.8912,-4.8938,-4.9052,-4.904,-4.9051,-4.909,-4.909,-4.9163,-4.9174,-4.9205,-4.9289,-4.9306,-4.9337,-4.9297,-4.9502,-4.9505,-4.9509,-4.9504,-4.9509,-4.9513,0,0,0,0,0,-4.8776,-4.8832,-4.8839,-4.886,-4.8975,-4.9054,-4.9069,-4.9104,-4.9092,-4.9121,-4.9163,-4.9171,-4.9323,-4.9296,-4.9316,-4.9349,-4.95,-4.9504,-4.9508,-4.9503,-4.9508,-4.9513,0,0,0,0,0,0,-4.8759,-4.8842,-4.8851,-4.8933,-4.8986,-4.9058,-4.9096,-4.9109,-4.9166,-4.9164,-4.9205,-4.9221,-4.9296,-4.9331,-4.93,-4.9426,-4.9411,-4.9419,-4.9399,-4.9405,-4.941,-4.9398,-4.9303,0,0,0,0,0,-4.8766,-4.8823,-4.8892,-4.8957,-4.8983,-4.9035,-4.9071,-4.9093,-4.915,-4.9172,-4.9219,-4.9274,-4.9334,-4.9372,-4.943,-4.9511,-4.9526,-4.9544,-4.9548,-4.9551,-4.9557,-4.9601,-4.9609,-4.9525,-4.9525,-4.9524,0,0,-4.8778,-4.883,-4.8864,-4.8955,-4.8999,-4.9057,-4.9054,-4.9115,-4.9158,-4.9182,-4.9257,-4.9294,-4.9357,-4.9436,-4.9474,-4.9468,-4.9584,-4.9556,-4.9559,-4.9563,-4.9607,-4.9615,-4.9622,-4.9527,-4.9527,-4.9526,0,0,-4.883,-4.8876,-4.8934,-4.8979,-4.9046,-4.908,-4.9095,-4.9165,-4.919,-4.9267,-4.9286,-4.9338,-4.9441,-4.9485,-4.9521,-4.9592,-4.9602,-4.961,-4.9631,-4.9674,-4.9681,-4.9687,-4.9711,-4.9719,-4.9616,-4.9616,-4.9616,0,-4.8836,-4.8925,-4.8963,-4.9024,-4.9063,-4.9088,-4.9148,-4.9189,-4.9272,-4.9298,-4.9291,-4.942,-4.9465,-4.9554,-4.9572,-4.9601,-4.9618,-4.96,-4.9677,-4.9684,-4.969,-4.9713,-4.9722,-4.9617,-4.9617,-4.9617,-4.9617,0,-4.8929,-4.899,-4.903,-4.9109,-4.9153,-4.9213,-4.926,-4.9301,-4.932,-4.9355,-4.9433,-4.9488,-4.9558,-4.9582,-4.9601,-4.9674,-4.9668,-4.9669,-4.9654,-4.9698,-4.972,-4.9729,-4.9617,-4.9617,-4.9617,-4.9617,0,0,-4.8971,-4.9073,-4.9086,-4.9122,-4.9199,-4.9247,-4.9309,-4.9378,-4.9411,-4.9468,-4.952,-4.9607,-4.9608,-4.9649,-4.9674,-4.9712,-4.9763,-4.9708,-4.971,-4.9714,-4.9846,-4.9843,-4.9852,-4.9771,-4.9773,-4.9775,-4.984,0,-4.9031,-4.9141,-4.9178,-4.9269,-4.9325,-4.9351,-4.9405,-4.9457,-4.9492,-4.9546,-4.9585,-4.9645,-4.9643,-4.9667,-4.9706,-4.9748,-4.9789,-4.9745,-4.9819,-4.9821,-4.9799,-4.9864,-4.9862,-4.992,-4.9849,-4.985,-4.9851,0,-4.9114,-4.9172,-4.9269,-4.9339,-4.9364,-4.9412,-4.9478,-4.9529,-4.959,-4.9613,-4.9659,-4.9682,-4.9747,-4.973,-4.982,-4.9789,-4.9822,-4.9848,-4.9851,-4.9857,-4.9837,-4.987,-4.994,-4.9948,-4.9866,-4.9865,-4.9864,0,-4.9133,-4.9236,-4.9307,-4.9338,-4.9422,-4.9454,-4.9491,-4.955,-4.9589,-4.9648,-4.9674,-4.9739,-4.9774,-4.9824,-4.9864,-4.9849,-4.995,-4.9937,-4.997,-4.9968,-4.9987,-4.9985,-5.0061,-5.0013,-5.0013,-5.0012,-5.0012,0,-4.9194,-4.9252,-4.9317,-4.936,-4.9426,-4.9468,-4.9532,-4.957,-4.9623,-4.9674,-4.9701,-4.9749,-4.9799,-4.9853,-4.9885,-4.9954,-4.9971,-4.999,-4.9997,-4.9986,-4.9983,-5.0006,-5.0003,-5.0015,-5.0014,-5.0014,-5.0013,0,-4.9225,-4.9271,-4.935,-4.9423,-4.9443,-4.9488,-4.9551,-4.9594,-4.9631,-4.9696,-4.9713,-4.9771,-4.9837,-4.9882,-4.9966,-4.9987,-5.0061,-5.0069,-5.004,-5.0043,-5.0072,-5.0068,-5.0164,-5.0178,-5.0122,-5.0122,-5.0123,0,-4.926,-4.9305,-4.9383,-4.9419,-4.9456,-4.9514,-4.9555,-4.9599,-4.964,-4.9713,-4.9748,-4.9815,-4.9871,-4.9974,-5.0023,-5.0088,-5.0096,-5.0125,-5.0106,-5.0093,-5.0094,-5.009,-5.0094,-5.0127,-5.0127,-5.0128,-5.0128,0,-4.9316,-4.9337,-4.9394,-4.9459,-4.9507,-4.9561,-4.9615,-4.9643,-4.9697,-4.9742,-4.9809,-4.9853,-4.9939,-5.0005,-5.0074,-5.0112,-5.0129,-5.0134,-5.0145,-5.0133,-5.0113,-5.0123,-5.0046,-5.0131,-5.0131,-5.0131,-5.0131,-5.013,-4.9349,-4.939,-4.9451,-4.9514,-4.956,-4.961,-4.9654,-4.9697,-4.9754,-4.9827,-4.985,-4.992,-4.998,-5.0075,-5.0114,-5.0169,-5.0167,-5.0183,-5.0186,-5.0189,-5.0188,-5.0107,-5.0182,-5.0182,-5.0182,-5.0182,-5.0182,0,-4.9404,-4.9446,-4.9503,-4.9578,-4.9628,-4.9641,-4.9702,-4.9742,-4.9803,-4.9858,-4.9913,-4.999,-5.0055,-5.011,-5.0177,-5.0211,-5.022,-5.0227,-5.0223,-5.0232,-5.0187,-5.017,-5.0218,-5.0218,-5.0218,-5.0218,-5.0218,-5.0218,-4.9439,-4.9509,-4.9537,-4.963,-4.9671,-4.9739,-4.9773,-4.9819,-4.9863,-4.9948,-5.0002,-5.0038,-5.0094,-5.0165,-5.0225,-5.024,-5.0262,-5.0267,-5.0283,-5.0239,-5.0235,-5.0231,-5.0215,-5.0272,-5.0272,-5.0323,-5.0324,-5.0324]},{"header":{"parameterUnit":"m.s-1","parameterCategory":1,"la1":30.2991,"la2":30.254,"lo1":-89.0895,"lo2":-89.0444,"dy":0.0017,"dx":0.0017,"nx":28,"ny":28,"refTime":"2025-04-03T03:00:00:Z","depth":0,"parameterNumber":3,"parameterNumberName":"V-component_of_WINDS"},"data":[0,0,0,0,0,0,0,0,0,0,0,0,0,0,0,0,0,0,0,0,0,0,0,0,0,0,0,0,0,0,0,0,0,0,0,0,0,0,0,0,0,0,0,0,0,0,0,0,0,0,0,0,0,0,0,0,0,0,5.4845,5.4846,0,5.4973,5.4974,5.4976,5.4977,5.4975,5.4973,5.4972,5.5102,5.5107,5.5112,0,0,0,0,0,0,0,0,0,0,0,0,0,5.4601,5.4605,5.4845,5.4846,5.4848,5.4973,5.4974,5.4976,5.4977,5.4975,5.4973,5.4971,5.51,5.5106,5.5112,0,0,0,0,0,0,0,0,0,0,0,0,0,5.4716,5.4607,5.4844,5.4863,5.4866,5.4972,5.4975,5.4977,5.4977,5.4975,5.4973,5.497,5.5098,5.5105,5.5113,5.5208,0,0,5.5136,5.5139,0,0,0,0,0,0,0,0,5.4709,5.4725,5.4859,5.4862,5.4866,5.4956,5.4936,5.5054,5.4978,5.4935,5.4972,5.4969,5.5055,5.5066,5.5095,5.5214,5.522,5.5136,5.5141,5.5144,5.5146,0,0,0,0,0,0,0,5.4701,5.4719,5.4895,5.4861,5.4865,5.4866,5.4879,5.4959,5.5007,5.4939,5.4939,5.4954,5.5057,5.5088,5.5099,5.5222,5.5136,5.5143,5.5147,5.515,5.5428,5.5431,0,0,0,0,0,0,5.469,5.4712,5.4891,5.4899,5.478,5.4872,5.4887,5.493,5.5007,5.5016,5.4956,5.4954,5.5077,5.509,5.5103,5.5222,5.5144,5.5151,5.5155,5.5425,5.5429,5.5432,0,0,0,0,0,0,5.4684,5.4705,5.4886,5.4806,5.4829,5.4879,5.4927,5.4934,5.4965,5.502,5.5028,5.498,5.5075,5.5093,5.5183,5.5227,5.5154,5.5161,5.5422,5.5426,5.543,5.5459,0,0,0,0,0,0,5.4677,5.4704,5.474,5.4807,5.4833,5.4964,5.4929,5.4938,5.4978,5.4976,5.5044,5.5053,5.5075,5.5172,5.519,5.5236,5.5167,5.5418,5.5424,5.5429,5.5455,5.5464,5.5472,0,0,0,0,0,5.4669,5.4742,5.4742,5.4763,5.488,5.4966,5.4981,5.5005,5.4982,5.5019,5.5055,5.5051,5.5219,5.5181,5.5202,5.525,5.5415,5.5422,5.5429,5.5451,5.5462,5.5472,0,0,0,0,0,0,5.4678,5.4751,5.4752,5.4849,5.4901,5.4966,5.5014,5.5016,5.5076,5.5072,5.5098,5.5114,5.5204,5.5236,5.5193,5.5348,5.5314,5.5325,5.5324,5.5336,5.5344,5.5335,5.5173,0,0,0,0,0,5.4691,5.4755,5.4815,5.4895,5.4922,5.4964,5.5002,5.5016,5.5071,5.5093,5.5135,5.5189,5.5254,5.5296,5.5359,5.5459,5.5475,5.5503,5.5512,5.5518,5.5528,5.5587,5.56,5.5453,5.5453,5.5453,0,0,5.4719,5.4767,5.4806,5.4899,5.4941,5.5007,5.4982,5.5052,5.5102,5.5104,5.5193,5.5225,5.5287,5.5384,5.5428,5.5413,5.5572,5.5527,5.5532,5.5538,5.5595,5.5609,5.5621,5.5458,5.5457,5.5456,0,0,5.4805,5.4847,5.492,5.4963,5.5029,5.5056,5.5074,5.5139,5.5161,5.5251,5.5254,5.5313,5.5424,5.5469,5.5506,5.5612,5.5612,5.5632,5.5678,5.5734,5.5746,5.5757,5.5797,5.5811,5.5641,5.5641,5.5641,0,5.4832,5.4932,5.4957,5.5029,5.507,5.5076,5.5151,5.5192,5.5273,5.5302,5.5284,5.5426,5.5467,5.5576,5.5602,5.5631,5.5653,5.5625,5.5742,5.5753,5.5763,5.5802,5.5817,5.5643,5.5643,5.5643,5.5642,0,5.4963,5.5033,5.5084,5.5165,5.5212,5.5285,5.5321,5.5366,5.5376,5.5406,5.5499,5.5549,5.5624,5.565,5.566,5.5761,5.575,5.5737,5.5704,5.5779,5.5816,5.5831,5.5646,5.5645,5.5645,5.5644,0,0,5.5058,5.5153,5.5172,5.521,5.5283,5.5338,5.5411,5.5485,5.5524,5.5581,5.5645,5.574,5.5729,5.5771,5.5787,5.5836,5.592,5.5817,5.5819,5.5837,5.6038,5.6049,5.6065,5.592,5.5923,5.5925,5.6033,0,5.5154,5.5286,5.5311,5.5426,5.5492,5.5499,5.5564,5.5616,5.5646,5.5707,5.574,5.5808,5.5787,5.5813,5.5862,5.5899,5.5961,5.5892,5.5981,5.5984,5.5967,5.6084,5.6096,5.6195,5.6047,5.605,5.6052,0,5.5283,5.5345,5.5467,5.5534,5.5563,5.562,5.5692,5.5749,5.5809,5.5828,5.5876,5.5887,5.5965,5.5928,5.6037,5.5989,5.6027,5.6051,5.6055,5.6066,5.6023,5.61,5.6227,5.6243,5.6074,5.6072,5.6071,0,5.5343,5.5457,5.5545,5.5577,5.5657,5.5698,5.5733,5.5791,5.5835,5.5897,5.5926,5.5995,5.6034,5.6088,5.6118,5.6088,5.6226,5.619,5.6245,5.6244,5.6275,5.6273,5.6412,5.6296,5.6295,5.6295,5.6295,0,5.5449,5.5524,5.5574,5.5629,5.5714,5.5742,5.5825,5.586,5.5912,5.5974,5.5983,5.6041,5.6076,5.614,5.6163,5.6251,5.6268,5.6286,5.6292,5.6287,5.6285,5.6313,5.6308,5.6299,5.6298,5.6297,5.6297,0,5.5531,5.5567,5.5665,5.5733,5.5752,5.5812,5.5871,5.5925,5.5955,5.6034,5.6054,5.6102,5.6178,5.6212,5.6305,5.6321,5.6422,5.6422,5.6402,5.6405,5.6459,5.6454,5.6623,5.6648,5.6512,5.6514,5.6515,0,5.5597,5.5655,5.5731,5.5774,5.581,5.5878,5.5924,5.5954,5.6001,5.6076,5.6121,5.6197,5.626,5.638,5.6424,5.6495,5.6498,5.6553,5.6509,5.6503,5.6502,5.65,5.6507,5.6561,5.6562,5.6563,5.6564,0,5.5711,5.5727,5.5792,5.5865,5.5919,5.5977,5.6035,5.6069,5.6109,5.6161,5.6239,5.6288,5.6384,5.646,5.6535,5.6571,5.6576,5.6577,5.6594,5.6591,5.6578,5.6589,5.6427,5.6574,5.6573,5.6572,5.6572,5.6571,5.579,5.5843,5.5905,5.5978,5.6025,5.6079,5.6134,5.6172,5.6237,5.6319,5.6332,5.6416,5.6477,5.6578,5.6618,5.6684,5.6671,5.6695,5.6702,5.6708,5.6712,5.6566,5.6697,5.6697,5.6697,5.6697,5.6697,0,5.5907,5.5948,5.6014,5.6095,5.6153,5.6152,5.6216,5.6265,5.6339,5.6395,5.6457,5.6548,5.6623,5.6672,5.6748,5.6792,5.6796,5.6811,5.6809,5.6818,5.6718,5.6697,5.6807,5.6807,5.6807,5.6807,5.6807,5.6807,5.5975,5.6066,5.6089,5.6204,5.6245,5.6328,5.6365,5.6415,5.646,5.6562,5.6624,5.6656,5.6711,5.6791,5.686,5.6873,5.6901,5.6917,5.693,5.6836,5.6825,5.6814,5.6794,5.6923,5.6923,5.7025,5.7026,5.7027]}]]